WAT5852 KVRB-TBPB

Flight info

Callsign WAT5852
Flight time N/A
Altitude 35000
Route LEBUR DCT JAKEL Y624 ZFP BR65V PEACH Y280 SUMAC Y421 HAGIT Y308 ACONY/N0456F370 Y260 LEEOO L454 ILURI UL454 SORRL DCT BGI
Aircraft B738/M-SDE2E3FGHIRWXY/LB1

Departure

Time 2026-05-08 15:51
Airport Vero Beach Regional Airport (KVRB)

Arrival

Time N/A
Airport Grantley Adams International Airport (TBPB)
Time Latitude Longitude Altitude Speed Heading
2026-05-08 15:44 27.65599 -80.42956 33 ft 0 kts 23°
2026-05-08 15:46 27.65589 -80.42961 33 ft 4 kts 357°
2026-05-08 15:47 27.65580 -80.42953 33 ft 0 kts 277°
2026-05-08 15:49 27.65596 -80.42984 31 ft 10 kts 316°
2026-05-08 15:49 27.65652 -80.42966 33 ft 10 kts 57°
2026-05-08 15:50 27.65688 -80.42901 33 ft 10 kts 37°
2026-05-08 15:50 27.65749 -80.42867 31 ft 10 kts 30°
2026-05-08 15:50 27.65762 -80.42798 32 ft 13 kts 108°
2026-05-08 15:50 27.65642 -80.42444 31 ft 86 kts 112°
2026-05-08 15:51 27.65347 -80.41556 31 ft 153 kts 110°
2026-05-08 15:51 27.64890 -80.40260 248 ft 193 kts 111°
2026-05-08 15:51 27.64342 -80.38892 1223 ft 191 kts 114°
2026-05-08 15:51 27.63662 -80.37551 1912 ft 211 kts 126°
2026-05-08 15:52 27.62681 -80.36166 2108 ft 238 kts 127°
2026-05-08 15:52 27.61611 -80.34632 2415 ft 267 kts 126°
2026-05-08 15:52 27.60456 -80.32950 3257 ft 272 kts 128°
2026-05-08 15:52 27.59307 -80.31241 4111 ft 273 kts 127°
2026-05-08 15:53 27.58158 -80.29508 4895 ft 279 kts 127°
2026-05-08 15:53 27.57004 -80.27748 5733 ft 282 kts 128°
2026-05-08 15:53 27.55827 -80.25938 6403 ft 289 kts 127°
2026-05-08 15:53 27.54638 -80.24098 7177 ft 291 kts 127°
2026-05-08 15:54 27.53446 -80.22245 7948 ft 293 kts 128°
2026-05-08 15:54 27.52249 -80.20378 8736 ft 294 kts 127°
2026-05-08 15:54 27.51045 -80.18498 9458 ft 299 kts 128°
2026-05-08 15:54 27.49822 -80.16584 10163 ft 302 kts 127°
2026-05-08 15:55 27.48568 -80.14623 10530 ft 319 kts 127°
2026-05-08 15:55 27.45797 -80.10291 10904 ft 359 kts 127°
2026-05-08 15:55 27.44319 -80.07977 11350 ft 368 kts 127°
2026-05-08 15:56 27.42815 -80.05622 11896 ft 373 kts 127°
2026-05-08 15:56 27.41291 -80.03235 12477 ft 377 kts 127°
2026-05-08 15:56 27.39751 -80.00825 13045 ft 382 kts 128°
2026-05-08 15:56 27.38190 -79.98383 13585 ft 387 kts 128°
2026-05-08 15:57 27.36605 -79.95907 14102 ft 392 kts 128°
2026-05-08 15:57 27.35008 -79.93412 14604 ft 395 kts 128°
2026-05-08 15:57 27.33392 -79.90889 15144 ft 399 kts 128°
2026-05-08 15:57 27.31761 -79.88346 15657 ft 403 kts 128°
2026-05-08 15:58 27.30137 -79.85815 16157 ft 406 kts 128°
2026-05-08 15:58 27.28477 -79.83228 16665 ft 410 kts 128°
2026-05-08 15:58 27.26798 -79.80614 17167 ft 414 kts 128°
2026-05-08 15:58 27.25103 -79.77977 17652 ft 418 kts 128°
2026-05-08 15:59 27.23391 -79.75315 18147 ft 422 kts 128°
2026-05-08 15:59 27.21663 -79.72629 18610 ft 425 kts 128°
2026-05-08 15:59 27.19921 -79.69923 19038 ft 429 kts 128°
2026-05-08 15:59 27.18167 -79.67199 19482 ft 432 kts 128°
2026-05-08 16:00 27.16399 -79.64457 19909 ft 435 kts 128°
2026-05-08 16:00 27.14617 -79.61694 20328 ft 438 kts 128°
2026-05-08 16:00 27.12823 -79.58914 20753 ft 441 kts 128°
2026-05-08 16:00 27.11016 -79.56116 21170 ft 444 kts 128°
2026-05-08 16:01 27.09195 -79.53297 21584 ft 447 kts 128°
2026-05-08 16:01 27.07360 -79.50459 21991 ft 450 kts 128°
2026-05-08 16:01 27.05517 -79.47610 22427 ft 452 kts 128°
2026-05-08 16:01 27.03663 -79.44747 22821 ft 455 kts 128°
2026-05-08 16:02 27.01797 -79.41866 23191 ft 458 kts 128°
2026-05-08 16:02 26.99919 -79.38969 23576 ft 461 kts 128°
2026-05-08 16:02 26.98029 -79.36056 23901 ft 463 kts 128°
2026-05-08 16:02 26.96153 -79.33166 24225 ft 466 kts 128°
2026-05-08 16:03 26.94246 -79.30229 24532 ft 468 kts 128°
2026-05-08 16:03 26.92325 -79.27273 24847 ft 470 kts 128°
2026-05-08 16:03 26.90398 -79.24310 25149 ft 472 kts 128°
2026-05-08 16:03 26.88456 -79.21325 25448 ft 474 kts 128°
2026-05-08 16:04 26.86507 -79.18332 25747 ft 477 kts 128°
2026-05-08 16:04 26.84550 -79.15327 26046 ft 479 kts 128°
2026-05-08 16:04 26.82580 -79.12306 26337 ft 481 kts 128°
2026-05-08 16:04 26.80605 -79.09267 26627 ft 483 kts 128°
2026-05-08 16:05 26.78645 -79.06201 26904 ft 485 kts 127°
2026-05-08 16:05 26.76690 -79.03110 27184 ft 487 kts 127°
2026-05-08 16:05 26.74730 -79.00008 27460 ft 489 kts 127°
2026-05-08 16:05 26.72763 -78.96897 27743 ft 491 kts 127°
2026-05-08 16:06 26.70787 -78.93779 28030 ft 492 kts 127°
2026-05-08 16:06 26.68803 -78.90657 28287 ft 494 kts 127°
2026-05-08 16:06 26.66803 -78.87517 28521 ft 496 kts 127°
2026-05-08 16:06 26.64797 -78.84369 28749 ft 498 kts 127°
2026-05-08 16:07 26.62781 -78.81206 29003 ft 500 kts 127°
2026-05-08 16:07 26.60761 -78.78039 29246 ft 502 kts 127°
2026-05-08 16:07 26.58758 -78.74900 29497 ft 504 kts 128°
2026-05-08 16:07 26.56697 -78.71732 29710 ft 505 kts 131°
2026-05-08 16:08 26.54341 -78.68826 29918 ft 504 kts 140°
2026-05-08 16:08 26.51638 -78.66365 30141 ft 501 kts 147°
2026-05-08 16:08 26.48822 -78.64073 30393 ft 501 kts 147°
2026-05-08 16:08 26.46000 -78.61800 30667 ft 500 kts 147°
2026-05-08 16:09 26.43185 -78.59519 30940 ft 500 kts 147°
2026-05-08 16:09 26.41328 -78.58002 31110 ft 500 kts 147°
2026-05-08 16:09 26.37605 -78.54934 31472 ft 498 kts 146°
2026-05-08 16:09 26.34824 -78.52628 31750 ft 498 kts 146°
2026-05-08 16:10 26.32049 -78.50322 31990 ft 498 kts 146°
2026-05-08 16:10 26.29267 -78.48012 32220 ft 498 kts 146°
2026-05-08 16:10 26.26485 -78.45704 32488 ft 498 kts 147°
2026-05-08 16:10 26.23742 -78.43432 32753 ft 498 kts 147°
2026-05-08 16:11 26.20979 -78.41108 33012 ft 499 kts 143°
2026-05-08 16:11 26.18466 -78.38416 33215 ft 504 kts 132°
2026-05-08 16:11 26.16287 -78.35345 33478 ft 504 kts 129°
2026-05-08 16:11 26.14167 -78.32240 33739 ft 504 kts 129°
2026-05-08 16:12 26.12051 -78.29129 33962 ft 504 kts 129°
2026-05-08 16:12 26.09929 -78.26027 34184 ft 504 kts 129°
2026-05-08 16:12 26.07797 -78.22939 34429 ft 502 kts 129°
2026-05-08 16:12 26.05668 -78.19879 34780 ft 498 kts 130°
2026-05-08 16:13 26.03547 -78.16847 35045 ft 496 kts 130°
2026-05-08 16:13 26.01412 -78.13809 35037 ft 500 kts 130°
2026-05-08 16:13 25.97094 -78.07677 35067 ft 506 kts 130°
2026-05-08 16:14 25.92725 -78.01477 35071 ft 512 kts 130°
2026-05-08 16:14 25.88313 -77.95217 35070 ft 517 kts 130°
2026-05-08 16:15 25.83873 -77.88925 35063 ft 518 kts 130°
2026-05-08 16:15 25.79419 -77.82620 35058 ft 519 kts 130°
2026-05-08 16:16 25.74957 -77.76314 35058 ft 519 kts 130°
2026-05-08 16:16 25.70528 -77.70065 35052 ft 518 kts 130°
2026-05-08 16:17 25.66804 -77.64815 35056 ft 517 kts 130°
2026-05-08 16:17 25.61617 -77.57514 35063 ft 515 kts 130°
2026-05-08 16:18 25.57218 -77.51332 35060 ft 514 kts 130°
2026-05-08 16:18 25.52797 -77.45126 35062 ft 513 kts 130°
2026-05-08 16:19 25.48380 -77.38935 35063 ft 512 kts 130°
2026-05-08 16:19 25.43966 -77.32756 35062 ft 512 kts 130°
2026-05-08 16:20 25.39552 -77.26584 35061 ft 511 kts 130°
2026-05-08 16:20 25.35882 -77.21460 35058 ft 510 kts 129°
2026-05-08 16:21 25.31478 -77.15318 35056 ft 509 kts 129°
2026-05-08 16:21 25.27079 -77.09190 35059 ft 508 kts 130°
2026-05-08 16:22 25.22689 -77.03082 35063 ft 507 kts 130°
2026-05-08 16:22 25.18299 -76.96983 35061 ft 507 kts 130°
2026-05-08 16:23 25.13905 -76.90887 35062 ft 507 kts 130°
2026-05-08 16:23 25.09508 -76.84794 35066 ft 507 kts 130°
2026-05-08 16:24 25.05117 -76.78717 35062 ft 507 kts 130°
2026-05-08 16:24 25.00729 -76.72651 35063 ft 505 kts 129°
2026-05-08 16:25 24.96377 -76.66644 35065 ft 505 kts 130°
2026-05-08 16:25 24.91997 -76.60605 35066 ft 504 kts 130°
2026-05-08 16:26 24.87613 -76.54568 35068 ft 504 kts 130°
2026-05-08 16:26 24.83231 -76.48541 35067 ft 504 kts 130°
2026-05-08 16:27 24.78850 -76.42524 35062 ft 504 kts 130°
2026-05-08 16:27 24.74470 -76.36515 35066 ft 503 kts 130°
2026-05-08 16:28 24.70083 -76.30504 35066 ft 503 kts 130°
2026-05-08 16:28 24.65700 -76.24506 35067 ft 503 kts 129°
2026-05-08 16:29 24.61316 -76.18513 35070 ft 503 kts 129°
2026-05-08 16:29 24.56972 -76.12499 35064 ft 503 kts 126°
2026-05-08 16:30 24.53216 -76.06021 35071 ft 503 kts 121°
2026-05-08 16:30 24.49715 -75.99557 35070 ft 503 kts 121°
2026-05-08 16:31 24.46108 -75.92966 35068 ft 503 kts 121°
2026-05-08 16:31 24.42452 -75.86408 35063 ft 504 kts 122°
2026-05-08 16:32 24.38774 -75.79863 35068 ft 504 kts 122°
2026-05-08 16:32 24.35115 -75.73367 35070 ft 504 kts 122°
2026-05-08 16:33 24.31430 -75.66828 35061 ft 504 kts 121°
2026-05-08 16:33 24.27748 -75.60298 35065 ft 503 kts 122°
2026-05-08 16:34 24.24065 -75.53775 35068 ft 503 kts 122°
2026-05-08 16:34 24.20384 -75.47262 35067 ft 503 kts 122°
2026-05-08 16:35 24.16701 -75.40757 35073 ft 502 kts 121°
2026-05-08 16:35 24.13017 -75.34259 35062 ft 502 kts 121°
2026-05-08 16:36 24.09333 -75.27768 35071 ft 502 kts 122°